Time,TemperatureF,DewpointF,PressureIn,WindDirection,WindDirectionDegrees,WindSpeedMPH,WindSpeedGustMPH,Humidity,HourlyPrecipIn,Conditions,Clouds,dailyrainin,SolarRadiationWatts/m^2,SoftwareType,DateUTC
2013-08-19 00:04:00,81.5,61.1,29.99,SE,126,2.0,2.0,50,0.00,,,0.00,0,Wunderground v.1.15,2013-08-19 05:04:00,
2013-08-19 00:10:00,81.4,60.4,29.99,SE,126,2.0,3.0,49,0.00,,,0.00,0,Wunderground v.1.15,2013-08-19 05:10:00,
2013-08-19 00:15:00,81.4,61.0,29.99,SE,126,2.0,3.0,50,0.00,,,0.00,0,Wunderground v.1.15,2013-08-19 05:15:00,
2013-08-19 00:20:00,81.2,60.8,29.99,SE,126,2.0,2.0,50,0.00,,,0.00,0,Wunderground v.1.15,2013-08-19 05:20:00,
2013-08-19 00:26:00,81.0,61.2,29.99,SE,126,2.0,3.0,51,0.00,,,0.00,0,Wunderground v.1.15,2013-08-19 05:26:00,
2013-08-19 00:31:00,80.9,61.1,30.00,SE,126,2.0,2.0,51,0.00,,,0.00,0,Wunderground v.1.15,2013-08-19 05:31:00,
2013-08-19 00:36:00,80.6,61.3,30.00,SE,126,2.0,4.0,52,0.00,,,0.00,0,Wunderground v.1.15,2013-08-19 05:36:00,
2013-08-19 00:41:00,80.2,61.0,30.00,SE,126,2.0,3.0,52,0.00,,,0.00,0,Wunderground v.1.15,2013-08-19 05:41:00,
2013-08-19 00:46:00,79.9,61.2,30.00,SE,126,2.0,3.0,53,0.00,,,0.00,0,Wunderground v.1.15,2013-08-19 05:46:00,
2013-08-19 00:51:00,79.9,61.8,29.99,SE,126,2.0,2.0,54,0.00,,,0.00,0,Wunderground v.1.15,2013-08-19 05:51:00,
2013-08-19 00:56:00,79.7,62.1,29.99,SE,126,2.0,3.0,55,0.00,,,0.00,0,Wunderground v.1.15,2013-08-19 05:56:00,
2013-08-19 01:01:00,79.5,61.4,29.99,SE,126,2.0,3.0,54,0.00,,,0.00,0,Wunderground v.1.15,2013-08-19 06:01:00,
2013-08-19 01:06:00,79.4,61.8,29.99,SE,126,2.0,3.0,55,0.00,,,0.00,0,Wunderground v.1.15,2013-08-19 06:06:00,
2013-08-19 01:12:00,79.2,61.6,29.99,SE,126,2.0,3.0,55,0.00,,,0.00,0,Wunderground v.1.15,2013-08-19 06:12:00,
2013-08-19 01:17:00,79.1,61.5,29.99,SE,126,3.0,3.0,55,0.00,,,0.00,0,Wunderground v.1.15,2013-08-19 06:17:00,
2013-08-19 01:22:00,79.1,61.5,29.99,SE,125,3.0,4.0,55,0.00,,,0.00,0,Wunderground v.1.15,2013-08-19 06:22:00,
2013-08-19 01:27:00,79.0,61.5,29.99,SE,125,3.0,4.0,55,0.00,,,0.00,0,Wunderground v.1.15,2013-08-19 06:27:00,
2013-08-19 01:32:00,78.8,61.3,29.99,SE,125,3.0,3.0,55,0.00,,,0.00,0,Wunderground v.1.15,2013-08-19 06:32:00,
2013-08-19 01:37:00,78.7,61.2,29.99,SE,125,3.0,4.0,55,0.00,,,0.00,0,Wunderground v.1.15,2013-08-19 06:37:00,
2013-08-19 01:42:00,78.6,61.1,29.99,SE,125,3.0,3.0,55,0.00,,,0.00,0,Wunderground v.1.15,2013-08-19 06:42:00,
2013-08-19 01:47:00,78.6,61.1,29.99,SE,125,3.0,3.0,55,0.00,,,0.00,0,Wunderground v.1.15,2013-08-19 06:47:00,
2013-08-19 01:53:00,78.6,61.1,29.99,ENE,63,3.0,3.0,55,0.00,,,0.00,0,Wunderground v.1.15,2013-08-19 06:53:00,
2013-08-19 01:58:00,78.6,61.1,29.99,ENE,78,3.0,4.0,55,0.00,,,0.00,0,Wunderground v.1.15,2013-08-19 06:58:00,
2013-08-19 02:03:00,78.6,61.1,29.99,ENE,78,3.0,4.0,55,0.00,,,0.00,0,Wunderground v.1.15,2013-08-19 07:03:00,
2013-08-19 02:08:00,78.5,61.0,29.98,ENE,75,3.0,4.0,55,0.00,,,0.00,0,Wunderground v.1.15,2013-08-19 07:08:00,
2013-08-19 02:13:00,78.4,61.4,29.99,ENE,74,3.0,4.0,56,0.00,,,0.00,0,Wunderground v.1.15,2013-08-19 07:13:00,
2013-08-19 02:18:00,78.4,61.4,29.98,ENE,74,3.0,4.0,56,0.00,,,0.00,0,Wunderground v.1.15,2013-08-19 07:18:00,
2013-08-19 02:24:00,78.4,61.4,29.98,ENE,76,3.0,4.0,56,0.00,,,0.00,0,Wunderground v.1.15,2013-08-19 07:24:00,
2013-08-19 02:29:00,78.3,61.8,29.99,ENE,76,3.0,4.0,57,0.00,,,0.00,0,Wunderground v.1.15,2013-08-19 07:29:00,
2013-08-19 02:35:00,78.2,61.7,29.99,ENE,76,3.0,4.0,57,0.00,,,0.00,0,Wunderground v.1.15,2013-08-19 07:35:00,
2013-08-19 02:40:00,78.1,62.1,29.99,ENE,76,3.0,4.0,58,0.00,,,0.00,0,Wunderground v.1.15,2013-08-19 07:40:00,
2013-08-19 02:45:00,78.1,62.1,29.99,ENE,76,3.0,4.0,58,0.00,,,0.00,0,Wunderground v.1.15,2013-08-19 07:45:00,
2013-08-19 02:50:00,77.9,62.4,29.99,ENE,76,3.0,3.0,59,0.00,,,0.00,0,Wunderground v.1.15,2013-08-19 07:50:00,
2013-08-19 02:56:00,77.8,62.3,29.99,ENE,76,3.0,4.0,59,0.00,,,0.00,0,Wunderground v.1.15,2013-08-19 07:56:00,
2013-08-19 03:01:00,77.8,62.8,29.99,ENE,76,3.0,3.0,60,0.00,,,0.00,0,Wunderground v.1.15,2013-08-19 08:01:00,
2013-08-19 03:06:00,77.8,62.8,29.98,ENE,76,3.0,4.0,60,0.00,,,0.00,0,Wunderground v.1.15,2013-08-19 08:06:00,
2013-08-19 03:11:00,77.7,62.7,29.99,ENE,78,4.0,4.0,60,0.00,,,0.00,0,Wunderground v.1.15,2013-08-19 08:11:00,
2013-08-19 03:16:00,77.6,63.1,29.98,East,80,4.0,6.0,61,0.00,,,0.00,0,Wunderground v.1.15,2013-08-19 08:16:00,
2013-08-19 03:21:00,77.5,63.0,29.98,East,80,4.0,4.0,61,0.00,,,0.00,0,Wunderground v.1.15,2013-08-19 08:21:00,
2013-08-19 03:27:00,77.5,63.5,29.98,East,86,4.0,5.0,62,0.00,,,0.00,0,Wunderground v.1.15,2013-08-19 08:27:00,
2013-08-19 03:32:00,77.4,63.4,29.98,East,87,4.0,5.0,62,0.00,,,0.00,0,Wunderground v.1.15,2013-08-19 08:32:00,
2013-08-19 03:37:00,77.3,63.7,29.98,East,87,4.0,7.0,63,0.00,,,0.00,0,Wunderground v.1.15,2013-08-19 08:37:00,
2013-08-19 03:42:00,77.4,63.8,29.98,East,89,4.0,6.0,63,0.00,,,0.00,0,Wunderground v.1.15,2013-08-19 08:42:00,
2013-08-19 03:47:00,77.4,63.8,29.98,East,84,5.0,7.0,63,0.00,,,0.00,0,Wunderground v.1.15,2013-08-19 08:47:00,
2013-08-19 03:52:00,77.5,63.9,29.98,East,82,5.0,6.0,63,0.00,,,0.00,0,Wunderground v.1.15,2013-08-19 08:52:00,
2013-08-19 03:57:00,77.5,64.4,29.98,East,88,5.0,6.0,64,0.00,,,0.00,0,Wunderground v.1.15,2013-08-19 08:57:00,
2013-08-19 04:03:00,77.4,64.3,29.98,East,88,4.0,6.0,64,0.00,,,0.00,0,Wunderground v.1.15,2013-08-19 09:03:00,
2013-08-19 04:08:00,77.3,64.2,29.98,East,88,4.0,6.0,64,0.00,,,0.00,0,Wunderground v.1.15,2013-08-19 09:08:00,
2013-08-19 04:13:00,77.2,64.5,29.98,East,96,4.0,6.0,65,0.00,,,0.00,0,Wunderground v.1.15,2013-08-19 09:13:00,
2013-08-19 04:19:00,76.9,64.2,29.98,East,94,4.0,7.0,65,0.00,,,0.00,0,Wunderground v.1.15,2013-08-19 09:19:00,
2013-08-19 04:25:00,76.9,64.7,29.98,East,92,5.0,5.0,66,0.00,,,0.00,0,Wunderground v.1.15,2013-08-19 09:25:00,
2013-08-19 04:30:00,76.8,64.6,29.98,East,81,4.0,4.0,66,0.00,,,0.00,0,Wunderground v.1.15,2013-08-19 09:30:00,
2013-08-19 04:35:00,76.7,64.5,29.98,East,80,4.0,6.0,66,0.00,,,0.00,0,Wunderground v.1.15,2013-08-19 09:35:00,
2013-08-19 04:40:00,76.7,64.5,29.98,East,98,4.0,8.0,66,0.00,,,0.00,0,Wunderground v.1.15,2013-08-19 09:40:00,
2013-08-19 04:45:00,76.6,64.8,29.98,East,88,4.0,8.0,67,0.00,,,0.00,0,Wunderground v.1.15,2013-08-19 09:45:00,
2013-08-19 04:50:00,76.7,64.9,29.98,ESE,106,5.0,5.0,67,0.00,,,0.00,0,Wunderground v.1.15,2013-08-19 09:50:00,
2013-08-19 04:55:00,76.6,64.8,29.98,East,82,5.0,7.0,67,0.00,,,0.00,0,Wunderground v.1.15,2013-08-19 09:55:00,
2013-08-19 05:00:00,76.4,64.6,29.98,ENE,78,5.0,5.0,67,0.00,,,0.00,0,Wunderground v.1.15,2013-08-19 10:00:00,
2013-08-19 05:05:00,76.4,64.6,29.97,East,94,5.0,7.0,67,0.00,,,0.00,0,Wunderground v.1.15,2013-08-19 10:05:00,
2013-08-19 05:11:00,76.4,64.6,29.97,ESE,119,5.0,7.0,67,0.00,,,0.00,0,Wunderground v.1.15,2013-08-19 10:11:00,
2013-08-19 05:16:00,76.3,64.5,29.98,ESE,109,5.0,7.0,67,0.00,,,0.00,0,Wunderground v.1.15,2013-08-19 10:16:00,
2013-08-19 05:21:00,76.3,64.5,29.98,East,97,4.0,5.0,67,0.00,,,0.00,0,Wunderground v.1.15,2013-08-19 10:21:00,
2013-08-19 05:27:00,76.0,64.7,29.98,East,86,4.0,5.0,68,0.00,,,0.00,0,Wunderground v.1.15,2013-08-19 10:27:00,
2013-08-19 05:32:00,76.1,64.8,29.98,East,92,4.0,7.0,68,0.00,,,0.00,0,Wunderground v.1.15,2013-08-19 10:32:00,
2013-08-19 05:37:00,76.0,64.7,29.98,East,98,5.0,7.0,68,0.00,,,0.00,0,Wunderground v.1.15,2013-08-19 10:37:00,
2013-08-19 05:42:00,75.9,64.6,29.98,East,97,5.0,7.0,68,0.00,,,0.00,0,Wunderground v.1.15,2013-08-19 10:42:00,
2013-08-19 05:47:00,75.9,64.6,29.98,ESE,107,4.0,7.0,68,0.00,,,0.00,0,Wunderground v.1.15,2013-08-19 10:47:00,
2013-08-19 05:52:00,75.7,64.4,29.98,East,99,4.0,7.0,68,0.00,,,0.00,0,Wunderground v.1.15,2013-08-19 10:52:00,
2013-08-19 05:57:00,75.7,64.8,29.99,ESE,114,4.0,8.0,69,0.00,,,0.00,0,Wunderground v.1.15,2013-08-19 10:57:00,
2013-08-19 06:02:00,75.7,64.8,29.98,ESE,111,4.0,5.0,69,0.00,,,0.00,0,Wunderground v.1.15,2013-08-19 11:02:00,
2013-08-19 06:08:00,75.5,64.6,29.99,ESE,103,4.0,7.0,69,0.00,,,0.00,0,Wunderground v.1.15,2013-08-19 11:08:00,
2013-08-19 06:13:00,75.5,64.6,29.99,ESE,104,4.0,5.0,69,0.00,,,0.00,0,Wunderground v.1.15,2013-08-19 11:13:00,
2013-08-19 06:19:00,75.5,64.6,29.99,East,95,4.0,7.0,69,0.00,,,0.00,0,Wunderground v.1.15,2013-08-19 11:19:00,
2013-08-19 06:24:00,75.4,64.5,30.00,ESE,105,4.0,5.0,69,0.00,,,0.00,0,Wunderground v.1.15,2013-08-19 11:24:00,
2013-08-19 06:29:00,75.4,64.5,29.99,East,93,4.0,5.0,69,0.00,,,0.00,0,Wunderground v.1.15,2013-08-19 11:29:00,
2013-08-19 06:34:00,75.2,64.7,29.99,ESE,108,4.0,7.0,70,0.00,,,0.00,0,Wunderground v.1.15,2013-08-19 11:34:00,
2013-08-19 06:40:00,75.2,64.7,30.00,ESE,103,4.0,4.0,70,0.00,,,0.00,0,Wunderground v.1.15,2013-08-19 11:40:00,
2013-08-19 06:46:00,75.0,64.5,30.00,East,98,5.0,6.0,70,0.00,,,0.00,0,Wunderground v.1.15,2013-08-19 11:46:00,
2013-08-19 06:51:00,75.0,64.5,30.00,ESE,103,5.0,5.0,70,0.00,,,0.00,5,Wunderground v.1.15,2013-08-19 11:51:00,
2013-08-19 06:57:00,75.0,64.5,30.00,East,101,3.0,6.0,70,0.00,,,0.00,9,Wunderground v.1.15,2013-08-19 11:57:00,
2013-08-19 07:02:00,74.8,64.4,30.00,ESE,117,4.0,4.0,70,0.00,,,0.00,14,Wunderground v.1.15,2013-08-19 12:02:00,
2013-08-19 07:07:00,74.9,64.5,30.00,East,98,4.0,5.0,70,0.00,,,0.00,19,Wunderground v.1.15,2013-08-19 12:07:00,
2013-08-19 07:12:00,75.0,64.5,30.00,East,88,4.0,7.0,70,0.00,,,0.00,25,Wunderground v.1.15,2013-08-19 12:12:00,
2013-08-19 07:17:00,74.9,64.5,30.01,ESE,109,4.0,7.0,70,0.00,,,0.00,30,Wunderground v.1.15,2013-08-19 12:17:00,
2013-08-19 07:22:00,75.0,64.5,30.01,ESE,116,4.0,7.0,70,0.00,,,0.00,39,Wunderground v.1.15,2013-08-19 12:22:00,
2013-08-19 07:28:00,75.2,64.7,30.01,East,101,5.0,7.0,70,0.00,,,0.00,49,Wunderground v.1.15,2013-08-19 12:28:00,
2013-08-19 07:34:00,75.1,64.6,30.01,ESE,109,4.0,5.0,70,0.00,,,0.00,62,Wunderground v.1.15,2013-08-19 12:34:00,
2013-08-19 07:39:00,75.3,64.8,30.01,ESE,117,5.0,7.0,70,0.00,,,0.00,72,Wunderground v.1.15,2013-08-19 12:39:00,
2013-08-19 07:44:00,75.4,64.9,30.02,ESE,103,5.0,7.0,70,0.00,,,0.00,86,Wunderground v.1.15,2013-08-19 12:44:00,
2013-08-19 07:49:00,75.5,65.0,30.02,SE,130,5.0,7.0,70,0.00,,,0.00,100,Wunderground v.1.15,2013-08-19 12:49:00,
2013-08-19 07:54:00,75.6,65.1,30.02,ESE,105,5.0,8.0,70,0.00,,,0.00,116,Wunderground v.1.15,2013-08-19 12:54:00,
2013-08-19 07:59:00,75.8,64.9,30.02,ESE,106,5.0,9.0,69,0.00,,,0.00,130,Wunderground v.1.15,2013-08-19 12:59:00,
2013-08-19 08:04:00,76.0,65.1,30.02,ESE,121,5.0,7.0,69,0.00,,,0.00,141,Wunderground v.1.15,2013-08-19 13:04:00,
2013-08-19 08:10:00,76.1,65.2,30.03,ESE,122,5.0,5.0,69,0.00,,,0.00,162,Wunderground v.1.15,2013-08-19 13:10:00,
2013-08-19 08:15:00,76.3,65.0,30.03,SE,128,6.0,8.0,68,0.00,,,0.00,178,Wunderground v.1.15,2013-08-19 13:15:00,
2013-08-19 08:21:00,76.6,65.2,30.03,East,101,5.0,6.0,68,0.00,,,0.00,193,Wunderground v.1.15,2013-08-19 13:21:00,
2013-08-19 08:26:00,76.6,65.2,30.03,ESE,113,5.0,10.0,68,0.00,,,0.00,209,Wunderground v.1.15,2013-08-19 13:26:00,
2013-08-19 08:31:00,76.8,65.4,30.03,SE,126,6.0,8.0,68,0.00,,,0.00,221,Wunderground v.1.15,2013-08-19 13:31:00,
2013-08-19 08:36:00,77.1,65.3,30.03,ESE,117,6.0,8.0,67,0.00,,,0.00,243,Wunderground v.1.15,2013-08-19 13:36:00,
2013-08-19 08:41:00,77.3,65.5,30.04,ESE,119,6.0,6.0,67,0.00,,,0.00,262,Wunderground v.1.15,2013-08-19 13:41:00,
2013-08-19 08:46:00,77.5,65.7,30.04,ESE,115,5.0,8.0,67,0.00,,,0.00,274,Wunderground v.1.15,2013-08-19 13:46:00,
2013-08-19 08:52:00,77.8,65.5,30.04,ESE,115,5.0,5.0,66,0.00,,,0.00,292,Wunderground v.1.15,2013-08-19 13:52:00,
2013-08-19 08:57:00,78.1,65.8,30.04,ESE,115,5.0,5.0,66,0.00,,,0.00,309,Wunderground v.1.15,2013-08-19 13:57:00,
2013-08-19 09:03:00,78.4,65.7,30.04,ESE,102,5.0,6.0,65,0.00,,,0.00,330,Wunderground v.1.15,2013-08-19 14:03:00,
2013-08-19 09:08:00,78.8,66.5,30.04,ESE,111,4.0,6.0,66,0.00,,,0.00,346,Wunderground v.1.15,2013-08-19 14:08:00,
2013-08-19 09:13:00,79.3,66.1,30.04,SE,128,4.0,5.0,64,0.00,,,0.00,360,Wunderground v.1.15,2013-08-19 14:13:00,
2013-08-19 09:18:00,79.4,65.7,30.04,ESE,106,5.0,9.0,63,0.00,,,0.00,378,Wunderground v.1.15,2013-08-19 14:18:00,
2013-08-19 09:23:00,79.6,65.9,30.04,SE,132,5.0,8.0,63,0.00,,,0.00,392,Wunderground v.1.15,2013-08-19 14:23:00,
2013-08-19 09:29:00,79.9,65.7,30.04,SE,143,6.0,8.0,62,0.00,,,0.00,415,Wunderground v.1.15,2013-08-19 14:29:00,
2013-08-19 09:34:00,80.0,65.8,30.04,ESE,121,6.0,8.0,62,0.00,,,0.00,427,Wunderground v.1.15,2013-08-19 14:34:00,
2013-08-19 09:39:00,80.2,66.0,30.04,SE,125,6.0,8.0,62,0.00,,,0.00,448,Wunderground v.1.15,2013-08-19 14:39:00,
2013-08-19 09:44:00,80.5,66.3,30.04,SE,126,6.0,8.0,62,0.00,,,0.00,462,Wunderground v.1.15,2013-08-19 14:44:00,
2013-08-19 09:49:00,80.8,66.1,30.04,SE,127,6.0,8.0,61,0.00,,,0.00,483,Wunderground v.1.15,2013-08-19 14:49:00,
2013-08-19 09:54:00,81.2,66.0,30.04,East,92,5.0,7.0,60,0.00,,,0.00,496,Wunderground v.1.15,2013-08-19 14:54:00,
2013-08-19 09:59:00,81.5,65.8,30.04,SE,139,5.0,9.0,59,0.00,,,0.00,512,Wunderground v.1.15,2013-08-19 14:59:00,
2013-08-19 10:05:00,81.9,66.2,30.04,ESE,103,6.0,6.0,59,0.00,,,0.00,531,Wunderground v.1.15,2013-08-19 15:05:00,
2013-08-19 10:10:00,81.9,65.7,30.04,South,180,6.0,6.0,58,0.00,,,0.00,548,Wunderground v.1.15,2013-08-19 15:10:00,
2013-08-19 10:15:00,82.0,66.3,30.04,SE,143,6.0,6.0,59,0.00,,,0.00,559,Wunderground v.1.15,2013-08-19 15:15:00,
2013-08-19 10:20:00,82.6,66.3,30.04,SE,126,5.0,6.0,58,0.00,,,0.00,573,Wunderground v.1.15,2013-08-19 15:20:00,
2013-08-19 10:25:00,83.0,65.7,30.05,ESE,123,5.0,8.0,56,0.00,,,0.00,589,Wunderground v.1.15,2013-08-19 15:25:00,
2013-08-19 10:30:00,82.9,66.1,30.05,SSE,150,6.0,6.0,57,0.00,,,0.00,603,Wunderground v.1.15,2013-08-19 15:30:00,
2013-08-19 10:35:00,83.1,65.8,30.05,ESE,102,6.0,9.0,56,0.00,,,0.00,617,Wunderground v.1.15,2013-08-19 15:35:00,
2013-08-19 10:40:00,83.5,66.2,30.05,SE,132,5.0,5.0,56,0.00,,,0.00,633,Wunderground v.1.15,2013-08-19 15:40:00,
2013-08-19 10:45:00,84.0,66.1,30.04,East,86,5.0,8.0,55,0.00,,,0.00,645,Wunderground v.1.15,2013-08-19 15:45:00,
2013-08-19 10:50:00,84.2,66.3,30.05,SSE,148,6.0,6.0,55,0.00,,,0.00,661,Wunderground v.1.15,2013-08-19 15:50:00,
2013-08-19 10:56:00,84.3,65.3,30.05,ESE,113,6.0,7.0,53,0.00,,,0.00,673,Wunderground v.1.15,2013-08-19 15:56:00,
2013-08-19 11:01:00,84.2,65.8,30.04,SSE,150,7.0,7.0,54,0.00,,,0.00,684,Wunderground v.1.15,2013-08-19 16:01:00,
2013-08-19 11:07:00,84.5,66.0,30.04,SE,134,6.0,7.0,54,0.00,,,0.00,705,Wunderground v.1.15,2013-08-19 16:07:00,
2013-08-19 11:12:00,85.1,66.6,30.04,East,80,5.0,7.0,54,0.00,,,0.00,714,Wunderground v.1.15,2013-08-19 16:12:00,
2013-08-19 11:17:00,85.4,66.3,30.03,SE,141,5.0,10.0,53,0.00,,,0.00,724,Wunderground v.1.15,2013-08-19 16:17:00,
2013-08-19 11:22:00,85.9,66.2,30.04,ESE,121,5.0,7.0,52,0.00,,,0.00,742,Wunderground v.1.15,2013-08-19 16:22:00,
2013-08-19 11:27:00,86.0,65.8,30.04,SSE,154,6.0,9.0,51,0.00,,,0.00,747,Wunderground v.1.15,2013-08-19 16:27:00,
2013-08-19 11:33:00,86.3,65.5,30.04,ESE,111,7.0,7.0,50,0.00,,,0.00,758,Wunderground v.1.15,2013-08-19 16:33:00,
2013-08-19 11:38:00,86.6,65.2,30.04,SSE,157,6.0,7.0,49,0.00,,,0.00,772,Wunderground v.1.15,2013-08-19 16:38:00,
2013-08-19 11:43:00,86.4,66.1,30.04,SE,134,5.0,6.0,51,0.00,,,0.00,780,Wunderground v.1.15,2013-08-19 16:43:00,
2013-08-19 11:48:00,87.4,67.1,30.03,SSE,153,4.0,7.0,51,0.00,,,0.00,786,Wunderground v.1.15,2013-08-19 16:48:00,
2013-08-19 11:53:00,87.9,65.2,30.03,South,169,4.0,7.0,47,0.00,,,0.00,793,Wunderground v.1.15,2013-08-19 16:53:00,
2013-08-19 11:58:00,88.1,65.9,30.03,SSE,164,4.0,7.0,48,0.00,,,0.00,802,Wunderground v.1.15,2013-08-19 16:58:00,
2013-08-19 12:04:00,88.0,65.2,30.03,SE,138,4.0,7.0,47,0.00,,,0.00,807,Wunderground v.1.15,2013-08-19 17:04:00,
2013-08-19 12:09:00,88.1,64.7,30.03,SW,215,5.0,7.0,46,0.00,,,0.00,823,Wunderground v.1.15,2013-08-19 17:09:00,
2013-08-19 12:14:00,88.6,64.5,30.03,SSE,157,5.0,5.0,45,0.00,,,0.00,833,Wunderground v.1.15,2013-08-19 17:14:00,
2013-08-19 12:20:00,89.0,63.6,30.03,SSE,150,4.0,4.0,43,0.00,,,0.00,854,Wunderground v.1.15,2013-08-19 17:20:00,
2013-08-19 12:25:00,88.6,62.6,30.02,SE,128,6.0,8.0,42,0.00,,,0.00,846,Wunderground v.1.15,2013-08-19 17:25:00,
2013-08-19 12:30:00,89.1,63.7,30.03,SE,135,5.0,5.0,43,0.00,,,0.00,831,Wunderground v.1.15,2013-08-19 17:30:00,
2013-08-19 12:35:00,89.2,61.0,30.03,South,170,5.0,9.0,39,0.00,,,0.00,868,Wunderground v.1.15,2013-08-19 17:35:00,
2013-08-19 12:40:00,88.7,62.0,30.02,SSE,155,6.0,7.0,41,0.00,,,0.00,918,Wunderground v.1.15,2013-08-19 17:40:00,
2013-08-19 12:45:00,89.0,60.8,30.02,SE,144,6.0,8.0,39,0.00,,,0.00,874,Wunderground v.1.15,2013-08-19 17:45:00,
2013-08-19 12:50:00,89.3,60.4,30.02,South,169,5.0,5.0,38,0.00,,,0.00,875,Wunderground v.1.15,2013-08-19 17:50:00,
2013-08-19 12:55:00,89.7,60.7,30.01,SE,128,4.0,6.0,38,0.00,,,0.00,891,Wunderground v.1.15,2013-08-19 17:55:00,
2013-08-19 13:00:00,90.0,61.0,30.01,South,175,4.0,5.0,38,0.00,,,0.00,905,Wunderground v.1.15,2013-08-19 18:00:00,
2013-08-19 13:05:00,90.0,60.2,30.01,SE,140,5.0,9.0,37,0.00,,,0.00,895,Wunderground v.1.15,2013-08-19 18:05:00,
2013-08-19 13:10:00,90.0,59.5,30.01,SE,128,6.0,6.0,36,0.00,,,0.00,884,Wunderground v.1.15,2013-08-19 18:10:00,
2013-08-19 13:15:00,90.4,59.0,30.01,SE,136,4.0,7.0,35,0.00,,,0.00,872,Wunderground v.1.15,2013-08-19 18:15:00,
2013-08-19 13:20:00,90.9,58.7,30.01,South,169,3.0,4.0,34,0.00,,,0.00,889,Wunderground v.1.15,2013-08-19 18:20:00,
2013-08-19 13:25:00,91.1,59.6,30.01,ESE,122,5.0,6.0,35,0.00,,,0.00,911,Wunderground v.1.15,2013-08-19 18:25:00,
2013-08-19 13:30:00,91.3,59.0,30.01,South,173,4.0,4.0,34,0.00,,,0.00,902,Wunderground v.1.15,2013-08-19 18:30:00,
2013-08-19 13:35:00,91.1,58.0,30.00,South,184,4.0,7.0,33,0.00,,,0.00,904,Wunderground v.1.15,2013-08-19 18:35:00,
2013-08-19 13:40:00,90.4,59.0,30.00,SSE,160,6.0,6.0,35,0.00,,,0.00,896,Wunderground v.1.15,2013-08-19 18:40:00,
2013-08-19 13:46:00,91.0,58.7,30.00,WSW,237,6.0,7.0,34,0.00,,,0.00,884,Wunderground v.1.15,2013-08-19 18:46:00,
2013-08-19 13:51:00,91.1,59.6,30.00,SE,134,3.0,4.0,35,0.00,,,0.00,902,Wunderground v.1.15,2013-08-19 18:51:00,
2013-08-19 13:56:00,91.9,60.3,29.99,SE,128,3.0,4.0,35,0.00,,,0.00,895,Wunderground v.1.15,2013-08-19 18:56:00,
2013-08-19 14:01:00,92.6,60.1,29.99,ESE,117,3.0,3.0,34,0.00,,,0.00,889,Wunderground v.1.15,2013-08-19 19:01:00,
2013-08-19 14:06:00,92.6,59.3,29.99,South,188,3.0,7.0,33,0.00,,,0.00,872,Wunderground v.1.15,2013-08-19 19:06:00,
2013-08-19 14:11:00,91.8,60.3,29.99,SE,130,4.0,10.0,35,0.00,,,0.00,881,Wunderground v.1.15,2013-08-19 19:11:00,
2013-08-19 14:17:00,91.7,59.3,29.99,SSE,165,5.0,10.0,34,0.00,,,0.00,886,Wunderground v.1.15,2013-08-19 19:17:00,
2013-08-19 14:22:00,91.8,58.6,29.98,NE,44,4.0,4.0,33,0.00,,,0.00,874,Wunderground v.1.15,2013-08-19 19:22:00,
2013-08-19 14:27:00,92.1,59.7,29.98,ENE,63,3.0,4.0,34,0.00,,,0.00,865,Wunderground v.1.15,2013-08-19 19:27:00,
2013-08-19 14:33:00,92.6,61.0,29.98,South,170,2.0,6.0,35,0.00,,,0.00,865,Wunderground v.1.15,2013-08-19 19:33:00,
2013-08-19 14:38:00,92.1,59.7,29.98,SE,124,4.0,6.0,34,0.00,,,0.00,860,Wunderground v.1.15,2013-08-19 19:38:00,
2013-08-19 14:43:00,91.9,59.5,29.97,SW,227,6.0,7.0,34,0.00,,,0.00,854,Wunderground v.1.15,2013-08-19 19:43:00,
2013-08-19 14:48:00,92.1,60.5,29.97,SW,226,4.0,7.0,35,0.00,,,0.00,842,Wunderground v.1.15,2013-08-19 19:48:00,
2013-08-19 14:53:00,92.8,61.1,29.97,South,188,3.0,6.0,35,0.00,,,0.00,846,Wunderground v.1.15,2013-08-19 19:53:00,
2013-08-19 14:59:00,93.0,59.6,29.96,SE,135,4.0,10.0,33,0.00,,,0.00,817,Wunderground v.1.15,2013-08-19 19:59:00,
2013-08-19 15:04:00,92.8,60.3,29.96,SE,140,5.0,6.0,34,0.00,,,0.00,826,Wunderground v.1.15,2013-08-19 20:04:00,
2013-08-19 15:09:00,93.1,59.7,29.95,SSE,168,5.0,6.0,33,0.00,,,0.00,830,Wunderground v.1.15,2013-08-19 20:09:00,
2013-08-19 15:14:00,92.9,59.6,29.95,SSE,150,4.0,8.0,33,0.00,,,0.00,819,Wunderground v.1.15,2013-08-19 20:14:00,
2013-08-19 15:19:00,92.8,61.1,29.95,SSW,205,4.0,8.0,35,0.00,,,0.00,809,Wunderground v.1.15,2013-08-19 20:19:00,
2013-08-19 15:25:00,93.0,60.5,29.95,WSW,239,3.0,6.0,34,0.00,,,0.00,791,Wunderground v.1.15,2013-08-19 20:25:00,
2013-08-19 15:30:00,93.5,59.2,29.95,ESE,121,3.0,4.0,32,0.00,,,0.00,788,Wunderground v.1.15,2013-08-19 20:30:00,
2013-08-19 15:35:00,93.5,58.3,29.95,South,169,4.0,8.0,31,0.00,,,0.00,786,Wunderground v.1.15,2013-08-19 20:35:00,
2013-08-19 15:41:00,94.1,60.6,29.94,SSE,158,3.0,3.0,33,0.00,,,0.00,765,Wunderground v.1.15,2013-08-19 20:41:00,
2013-08-19 15:46:00,93.7,60.3,29.94,SSE,153,4.0,9.0,33,0.00,,,0.00,751,Wunderground v.1.15,2013-08-19 20:46:00,
2013-08-19 15:51:00,94.1,59.7,29.94,South,175,4.0,4.0,32,0.00,,,0.00,747,Wunderground v.1.15,2013-08-19 20:51:00,
2013-08-19 15:56:00,94.0,57.8,29.93,East,101,4.0,6.0,30,0.00,,,0.00,740,Wunderground v.1.15,2013-08-19 20:56:00,
2013-08-19 16:01:00,93.9,59.6,29.93,SE,142,4.0,7.0,32,0.00,,,0.00,724,Wunderground v.1.15,2013-08-19 21:01:00,
2013-08-19 16:06:00,93.8,57.7,29.93,East,86,4.0,7.0,30,0.00,,,0.00,712,Wunderground v.1.15,2013-08-19 21:06:00,
2013-08-19 16:11:00,94.1,57.9,29.93,NNE,33,4.0,5.0,30,0.00,,,0.00,696,Wunderground v.1.15,2013-08-19 21:11:00,
2013-08-19 16:16:00,94.4,58.2,29.92,East,97,3.0,7.0,30,0.00,,,0.00,686,Wunderground v.1.15,2013-08-19 21:16:00,
2013-08-19 16:21:00,94.8,58.5,29.92,ESE,103,3.0,3.0,30,0.00,,,0.00,668,Wunderground v.1.15,2013-08-19 21:21:00,
2013-08-19 16:27:00,95.5,58.2,29.92,ENE,71,2.0,3.0,29,0.00,,,0.00,654,Wunderground v.1.15,2013-08-19 21:27:00,
2013-08-19 16:32:00,94.7,58.4,29.92,East,88,3.0,7.0,30,0.00,,,0.00,645,Wunderground v.1.15,2013-08-19 21:32:00,
2013-08-19 16:37:00,94.9,57.7,29.92,East,94,4.0,7.0,29,0.00,,,0.00,582,Wunderground v.1.15,2013-08-19 21:37:00,
2013-08-19 16:42:00,95.1,57.8,29.92,SE,124,2.0,5.0,29,0.00,,,0.00,596,Wunderground v.1.15,2013-08-19 21:42:00,
2013-08-19 16:47:00,94.8,57.6,29.92,ESE,105,3.0,5.0,29,0.00,,,0.00,599,Wunderground v.1.15,2013-08-19 21:47:00,
2013-08-19 16:52:00,95.0,55.8,29.92,East,80,2.0,3.0,27,0.00,,,0.00,592,Wunderground v.1.15,2013-08-19 21:52:00,
2013-08-19 16:57:00,95.2,57.0,29.92,NE,55,2.0,5.0,28,0.00,,,0.00,575,Wunderground v.1.15,2013-08-19 21:57:00,
2013-08-19 17:02:00,94.9,56.7,29.92,East,86,2.0,3.0,28,0.00,,,0.00,563,Wunderground v.1.15,2013-08-19 22:02:00,
2013-08-19 17:08:00,94.8,57.6,29.92,ESE,102,4.0,10.0,29,0.00,,,0.00,554,Wunderground v.1.15,2013-08-19 22:08:00,
2013-08-19 17:13:00,94.4,56.3,29.92,ENE,77,5.0,5.0,28,0.00,,,0.00,506,Wunderground v.1.15,2013-08-19 22:13:00,
2013-08-19 17:18:00,94.2,56.1,29.92,ESE,111,5.0,6.0,28,0.00,,,0.00,436,Wunderground v.1.15,2013-08-19 22:18:00,
2013-08-19 17:23:00,94.3,56.2,29.92,SE,144,4.0,11.0,28,0.00,,,0.00,492,Wunderground v.1.15,2013-08-19 22:23:00,
2013-08-19 17:28:00,94.2,57.1,29.91,NNE,32,5.0,11.0,29,0.00,,,0.00,480,Wunderground v.1.15,2013-08-19 22:28:00,
2013-08-19 17:33:00,93.9,56.8,29.92,ESE,111,5.0,6.0,29,0.00,,,0.00,455,Wunderground v.1.15,2013-08-19 22:33:00,
2013-08-19 17:39:00,94.1,56.0,29.91,ESE,119,5.0,6.0,28,0.00,,,0.00,436,Wunderground v.1.15,2013-08-19 22:39:00,
2013-08-19 17:44:00,94.5,57.3,29.91,SE,134,3.0,4.0,29,0.00,,,0.00,413,Wunderground v.1.15,2013-08-19 22:44:00,
2013-08-19 17:49:00,94.8,56.6,29.91,ENE,57,2.0,5.0,28,0.00,,,0.00,401,Wunderground v.1.15,2013-08-19 22:49:00,
2013-08-19 17:54:00,94.5,56.4,29.91,ENE,69,3.0,8.0,28,0.00,,,0.00,383,Wunderground v.1.15,2013-08-19 22:54:00,
2013-08-19 17:59:00,94.2,56.1,29.91,East,86,4.0,8.0,28,0.00,,,0.00,367,Wunderground v.1.15,2013-08-19 22:59:00,
2013-08-19 18:04:00,94.1,57.0,29.91,NE,46,4.0,4.0,29,0.00,,,0.00,346,Wunderground v.1.15,2013-08-19 23:04:00,
2013-08-19 18:09:00,94.1,57.0,29.91,ESE,103,3.0,4.0,29,0.00,,,0.00,336,Wunderground v.1.15,2013-08-19 23:09:00,
2013-08-19 18:14:00,94.2,57.1,29.91,ENE,72,4.0,5.0,29,0.00,,,0.00,320,Wunderground v.1.15,2013-08-19 23:14:00,
2013-08-19 18:19:00,94.2,56.1,29.91,East,94,4.0,6.0,28,0.00,,,0.00,299,Wunderground v.1.15,2013-08-19 23:19:00,
2013-08-19 18:24:00,94.1,56.0,29.91,East,98,4.0,5.0,28,0.00,,,0.00,278,Wunderground v.1.15,2013-08-19 23:24:00,
2013-08-19 18:29:00,93.7,55.7,29.90,NE,53,5.0,8.0,28,0.00,,,0.00,262,Wunderground v.1.15,2013-08-19 23:29:00,
2013-08-19 18:34:00,93.7,56.6,29.90,East,83,5.0,6.0,29,0.00,,,0.00,243,Wunderground v.1.15,2013-08-19 23:34:00,
2013-08-19 18:39:00,93.6,56.6,29.90,East,85,3.0,6.0,29,0.00,,,0.00,230,Wunderground v.1.15,2013-08-19 23:39:00,
2013-08-19 18:44:00,93.8,56.7,29.90,East,96,3.0,5.0,29,0.00,,,0.00,213,Wunderground v.1.15,2013-08-19 23:44:00,
2013-08-19 18:49:00,93.8,57.7,29.90,SE,124,3.0,5.0,30,0.00,,,0.00,193,Wunderground v.1.15,2013-08-19 23:49:00,
2013-08-19 18:54:00,93.7,56.6,29.90,East,90,3.0,5.0,29,0.00,,,0.00,128,Wunderground v.1.15,2013-08-19 23:54:00,
2013-08-19 18:59:00,93.6,56.6,29.90,ENE,74,3.0,5.0,29,0.00,,,0.00,162,Wunderground v.1.15,2013-08-19 23:59:00,
2013-08-19 19:04:00,93.4,56.4,29.90,East,90,3.0,5.0,29,0.00,,,0.00,144,Wunderground v.1.15,2013-08-20 00:04:00,
2013-08-19 19:10:00,93.4,57.3,29.90,East,79,3.0,5.0,30,0.00,,,0.00,118,Wunderground v.1.15,2013-08-20 00:10:00,
2013-08-19 19:15:00,93.2,57.2,29.90,ENE,71,3.0,6.0,30,0.00,,,0.00,79,Wunderground v.1.15,2013-08-20 00:15:00,
2013-08-19 19:20:00,93.1,57.1,29.90,ENE,72,3.0,3.0,30,0.00,,,0.00,83,Wunderground v.1.15,2013-08-20 00:20:00,
2013-08-19 19:25:00,93.0,56.0,29.90,NE,54,3.0,5.0,29,0.00,,,0.00,62,Wunderground v.1.15,2013-08-20 00:25:00,
2013-08-19 19:31:00,92.9,56.9,29.90,ESE,102,3.0,3.0,30,0.00,,,0.00,54,Wunderground v.1.15,2013-08-20 00:31:00,
2013-08-19 19:36:00,92.7,57.6,29.90,East,96,2.0,3.0,31,0.00,,,0.00,42,Wunderground v.1.15,2013-08-20 00:36:00,
2013-08-19 19:41:00,92.5,57.5,29.90,East,96,2.0,2.0,31,0.00,,,0.00,32,Wunderground v.1.15,2013-08-20 00:41:00,
2013-08-19 19:46:00,92.3,57.3,29.90,ESE,113,2.0,4.0,31,0.00,,,0.00,23,Wunderground v.1.15,2013-08-20 00:46:00,
2013-08-19 19:51:00,92.0,57.0,29.90,ESE,105,3.0,4.0,31,0.00,,,0.00,18,Wunderground v.1.15,2013-08-20 00:51:00,
2013-08-19 19:56:00,91.7,57.7,29.90,East,80,2.0,5.0,32,0.00,,,0.00,12,Wunderground v.1.15,2013-08-20 00:56:00,
2013-08-19 20:01:00,91.6,57.6,29.90,East,92,3.0,3.0,32,0.00,,,0.00,9,Wunderground v.1.15,2013-08-20 01:01:00,
2013-08-19 20:06:00,91.4,57.4,29.90,East,92,3.0,3.0,32,0.00,,,0.00,5,Wunderground v.1.15,2013-08-20 01:06:00,
2013-08-19 20:11:00,91.4,57.4,29.90,East,92,2.0,2.0,32,0.00,,,0.00,0,Wunderground v.1.15,2013-08-20 01:11:00,
2013-08-19 20:16:00,91.3,57.3,29.90,East,92,2.0,2.0,32,0.00,,,0.00,0,Wunderground v.1.15,2013-08-20 01:16:00,
2013-08-19 20:21:00,91.2,57.2,29.90,East,92,2.0,2.0,32,0.00,,,0.00,0,Wunderground v.1.15,2013-08-20 01:21:00,
2013-08-19 20:26:00,91.1,57.1,29.90,East,92,2.0,2.0,32,0.00,,,0.00,0,Wunderground v.1.15,2013-08-20 01:26:00,
2013-08-19 20:31:00,91.0,57.9,29.90,East,92,2.0,2.0,33,0.00,,,0.00,0,Wunderground v.1.15,2013-08-20 01:31:00,
2013-08-19 20:36:00,90.7,57.6,29.90,East,92,2.0,2.0,33,0.00,,,0.00,0,Wunderground v.1.15,2013-08-20 01:36:00,
2013-08-19 20:41:00,90.5,58.3,29.90,East,92,1.0,1.0,34,0.00,,,0.00,0,Wunderground v.1.15,2013-08-20 01:41:00,
2013-08-19 20:46:00,90.2,58.0,29.91,East,92,1.0,3.0,34,0.00,,,0.00,0,Wunderground v.1.15,2013-08-20 01:46:00,
2013-08-19 20:51:00,90.1,58.8,29.91,East,92,2.0,3.0,35,0.00,,,0.00,0,Wunderground v.1.15,2013-08-20 01:51:00,
2013-08-19 20:56:00,89.8,58.5,29.91,East,92,2.0,3.0,35,0.00,,,0.00,0,Wunderground v.1.15,2013-08-20 01:56:00,
2013-08-19 21:01:00,89.7,58.4,29.91,East,92,2.0,3.0,35,0.00,,,0.00,0,Wunderground v.1.15,2013-08-20 02:01:00,
2013-08-19 21:07:00,89.4,58.9,29.91,East,92,2.0,3.0,36,0.00,,,0.00,0,Wunderground v.1.15,2013-08-20 02:07:00,
2013-08-19 21:12:00,89.0,58.6,29.92,East,94,2.0,5.0,36,0.00,,,0.00,0,Wunderground v.1.15,2013-08-20 02:12:00,
2013-08-19 21:17:00,88.7,59.1,29.92,ESE,102,3.0,6.0,37,0.00,,,0.00,0,Wunderground v.1.15,2013-08-20 02:17:00,
2013-08-19 21:22:00,88.1,59.3,29.92,ESE,119,4.0,7.0,38,0.00,,,0.00,0,Wunderground v.1.15,2013-08-20 02:22:00,
2013-08-19 21:28:00,87.6,58.9,29.92,ESE,107,5.0,9.0,38,0.00,,,0.00,0,Wunderground v.1.15,2013-08-20 02:28:00,
2013-08-19 21:33:00,87.8,58.3,29.92,East,94,5.0,7.0,37,0.00,,,0.00,0,Wunderground v.1.15,2013-08-20 02:33:00,
2013-08-19 21:39:00,88.0,58.5,29.92,East,100,5.0,7.0,37,0.00,,,0.00,0,Wunderground v.1.15,2013-08-20 02:39:00,
2013-08-19 21:44:00,88.1,57.8,29.93,ESE,109,4.0,5.0,36,0.00,,,0.00,0,Wunderground v.1.15,2013-08-20 02:44:00,
2013-08-19 21:49:00,88.1,57.8,29.93,ESE,103,4.0,5.0,36,0.00,,,0.00,0,Wunderground v.1.15,2013-08-20 02:49:00,
2013-08-19 21:55:00,87.9,58.4,29.93,ESE,107,3.0,4.0,37,0.00,,,0.00,0,Wunderground v.1.15,2013-08-20 02:55:00,
2013-08-19 22:00:00,87.7,58.2,29.93,ESE,107,3.0,3.0,37,0.00,,,0.00,0,Wunderground v.1.15,2013-08-20 03:00:00,
2013-08-19 22:05:00,87.5,58.0,29.93,ESE,105,4.0,4.0,37,0.00,,,0.00,0,Wunderground v.1.15,2013-08-20 03:05:00,
2013-08-19 22:10:00,87.3,57.8,29.93,East,98,4.0,5.0,37,0.00,,,0.00,0,Wunderground v.1.15,2013-08-20 03:10:00,
2013-08-19 22:15:00,87.4,57.9,29.93,East,101,4.0,6.0,37,0.00,,,0.00,0,Wunderground v.1.15,2013-08-20 03:15:00,
2013-08-19 22:20:00,87.2,57.8,29.93,East,91,4.0,4.0,37,0.00,,,0.00,0,Wunderground v.1.15,2013-08-20 03:20:00,
2013-08-19 22:25:00,87.0,58.3,29.93,East,101,4.0,5.0,38,0.00,,,0.00,0,Wunderground v.1.15,2013-08-20 03:25:00,
2013-08-19 22:30:00,86.6,58.7,29.93,ESE,104,4.0,4.0,39,0.00,,,0.00,0,Wunderground v.1.15,2013-08-20 03:30:00,
2013-08-19 22:35:00,86.2,59.0,29.93,ESE,105,4.0,4.0,40,0.00,,,0.00,0,Wunderground v.1.15,2013-08-20 03:35:00,
2013-08-19 22:40:00,86.1,59.0,29.94,East,101,3.0,5.0,40,0.00,,,0.00,0,Wunderground v.1.15,2013-08-20 03:40:00,
2013-08-19 22:45:00,85.9,58.8,29.94,ESE,105,4.0,5.0,40,0.00,,,0.00,0,Wunderground v.1.15,2013-08-20 03:45:00,
2013-08-19 22:50:00,85.7,59.3,29.94,ESE,102,4.0,4.0,41,0.00,,,0.00,0,Wunderground v.1.15,2013-08-20 03:50:00,
2013-08-19 22:55:00,85.4,59.0,29.94,ESE,106,4.0,7.0,41,0.00,,,0.00,0,Wunderground v.1.15,2013-08-20 03:55:00,
2013-08-19 23:00:00,85.2,59.5,29.94,East,101,4.0,4.0,42,0.00,,,0.00,0,Wunderground v.1.15,2013-08-20 04:00:00,
2013-08-19 23:01:00,85.3,59.6,29.94,East,101,4.0,4.0,42,0.00,,,0.00,0,Wunderground v.1.15,2013-08-20 04:01:00,
2013-08-19 23:02:00,85.3,59.6,29.94,East,101,4.0,4.0,42,0.00,,,0.00,0,Wunderground v.1.15,2013-08-20 04:02:00,
2013-08-19 23:03:00,85.2,59.5,29.94,East,92,4.0,4.0,42,0.00,,,0.00,0,Wunderground v.1.15,2013-08-20 04:03:00,
2013-08-19 23:04:00,85.2,59.5,29.94,East,92,4.0,4.0,42,0.00,,,0.00,0,Wunderground v.1.15,2013-08-20 04:04:00,
2013-08-19 23:10:00,85.0,59.3,29.94,ESE,102,4.0,4.0,42,0.00,,,0.00,0,Wunderground v.1.15,2013-08-20 04:10:00,
2013-08-19 23:15:00,84.9,59.9,29.94,East,94,4.0,5.0,43,0.00,,,0.00,0,Wunderground v.1.15,2013-08-20 04:15:00,
2013-08-19 23:16:00,84.9,59.9,29.94,East,94,4.0,5.0,43,0.00,,,0.00,0,Wunderground v.1.15,2013-08-20 04:16:00,
2013-08-19 23:21:00,84.6,59.6,29.94,ESE,109,4.0,4.0,43,0.00,,,0.00,0,Wunderground v.1.15,2013-08-20 04:21:00,
2013-08-19 23:27:00,84.5,60.2,29.94,ESE,113,3.0,4.0,44,0.00,,,0.00,0,Wunderground v.1.15,2013-08-20 04:27:00,
2013-08-19 23:32:00,84.3,60.0,29.94,ESE,113,3.0,4.0,44,0.00,,,0.00,0,Wunderground v.1.15,2013-08-20 04:32:00,
2013-08-19 23:37:00,84.1,59.8,29.94,ESE,107,3.0,5.0,44,0.00,,,0.00,0,Wunderground v.1.15,2013-08-20 04:37:00,
2013-08-19 23:42:00,83.8,59.6,29.94,ESE,106,4.0,5.0,44,0.00,,,0.00,0,Wunderground v.1.15,2013-08-20 04:42:00,
2013-08-19 23:47:00,83.8,59.6,29.94,East,94,4.0,5.0,44,0.00,,,0.00,0,Wunderground v.1.15,2013-08-20 04:47:00,
2013-08-19 23:52:00,83.8,59.6,29.94,East,98,5.0,6.0,44,0.00,,,0.00,0,Wunderground v.1.15,2013-08-20 04:52:00,
2013-08-19 23:57:00,83.8,59.6,29.94,ESE,107,5.0,8.0,44,0.00,,,0.00,0,Wunderground v.1.15,2013-08-20 04:57:00,